Home   Weather   Guildford   Past weeks

Flag for United Kingdom Past Weather in Guildford, England, United Kingdom — Yesterday and Last 2 Weeks

Now
61 °F

Drizzle. Low clouds.


Feels Like: 61 °F
Forecast: 51 / 62 °F
Wind: 20 mph from Southwest

Location: Odiham

Current Time: Sep 29, 2016 at 1:09:37 AM

Latest Report: Sep 29, 2016 at 12:50 AM


Visibility: N/A

Pressure: 30.09 "Hg

Humidity: 100%

Dew Point: 61 °F

Location of GuildfordLocation

Past Weather in Guildford — Graph

°F

Guildford Temperature Yesterday

Maximum temperature yesterday: 68 °F (at 3:50 PM)
Minimum temperature yesterday: 54 °F (at 4:50 AM)
Average temperature yesterday: 60 °F

High & Low Weather Summary for the Past Weeks

 TemperatureHumidityPressure
High79 °F (Sep 15, 1:50 PM)100% (Sep 14, 11:50 PM)30.27 "Hg (Sep 14, 11:50 PM)
Low45 °F (Sep 23, 6:50 AM)46% (Sep 23, 1:50 PM)29.77 "Hg (Sep 14, 12:50 AM)
Average60 °F82%30.07 "Hg
* Reported Sep 13 11:50 PM — Sep 28 11:50 PM, Guildford, Weather by CustomWeather, © 2016

Note: Actual official high and low records may vary slightly from our data, if they occured in-between our weather recording intervals... More about our weather records

Advertising

Guildford Weather History for the Previous 24 Hours

Scroll right to see more
 ConditionsComfort  
Time TempWeatherWind HumidityBarometerVisibility
11:50 PM
Wed, Sep 28
61 °FDrizzle. Low clouds.15 mph100%30.12 "Hg4 mi
10:50 PM61 °FDrizzle. Mostly cloudy.16 mph94%30.15 "Hg1 mi
9:50 PM61 °FDrizzle. Mostly cloudy.17 mph94%30.15 "Hg1 mi
8:50 PM61 °FDrizzle. Low clouds.20 mph94%30.18 "Hg3 mi
7:50 PM61 °FMostly cloudy.15 mph94%30.18 "Hg5 mi
6:50 PM63 °FPassing clouds.13 mph88%30.21 "HgN/A
5:50 PM64 °FPartly sunny.13 mph83%30.21 "HgN/A
4:50 PM66 °FPartly sunny.14 mph83%30.21 "HgN/A
3:50 PM68 °FBroken clouds.16 mph73%30.21 "HgN/A
2:50 PM66 °FPartly sunny.18 mph73%30.24 "HgN/A
1:50 PM66 °FPartly sunny.17 mph73%30.27 "HgN/A
12:50 PM64 °FPartly sunny.14 mph73%30.27 "HgN/A
11:50 AM63 °FScattered clouds.14 mph73%30.27 "HgN/A
9:50 AM59 °FSunny.13 mph72%30.27 "Hg10 mi
8:50 AM55 °FSunny.14 mph82%30.27 "Hg10 mi
7:50 AM54 °FSunny.13 mph88%30.27 "Hg10 mi
6:50 AM54 °FClear.13 mph94%30.24 "Hg10 mi
5:50 AM54 °FPassing clouds.9 mph94%30.27 "HgN/A
4:50 AM54 °FPartly cloudy.10 mph94%30.27 "HgN/A
3:50 AM55 °FPassing clouds.12 mph88%30.27 "HgN/A
2:50 AM55 °FPassing clouds.12 mph94%30.27 "HgN/A
1:50 AM55 °FPassing clouds.9 mph88%30.27 "HgN/A
Weather by CustomWeather, © 2016

See weather overviewHow to use our weather pages